Starlink 30616

operational
NORAD ID: 58105 Int'l Des: 2023-161 Owner: SPXS Country: US Constellation: starlink
LEOCIRCULAR

Über Starlink 30616

Beschreibung wird geladen...

Live-Position

3D-Globus wird geladen...

Nächste Überflüge

Höhenverlauf

Altitude vs Time

uPlot chart will show altitude changes over time

Zweizeiliger Elementsatz

1 58105U 23161J 25347.27732608 .00001375 00000-0 58538-4 0 9997
2 58105 53.1608 193.8099 0001311 106.3111 253.8034 15.30203403121361
Epoch: 13. Dez. 2025 • Age: 26 hours

Aktueller Status

Höhe 476.7 km
Geschwindigkeit 7.63 km/s
Subsatellitenpunkt 33.79°N, 130.74°E
Startdatum 21. Okt. 2023
Alter 2.1 years
Typ internet

Technische Details

Klassifizierung Payload
Masse 730.00 kg
Trockenmasse 700.00 kg
Gesamtmasse 730.00 kg
Länge 0.30 m
Durchmesser 4.10 m
Spannweite 29.00 m
Form Box + pan
Hersteller SPXS
Bus-Typ Starlink V2M
Phasenstatus In Orbit
Besitzer/Staat SPXS/US

Große Konstellationen

Loading constellations...